Regional Weather Roundup
Issued by NWS

Home | Current Version | Previous Version | Graphics & Text | Print | Product List | Glossary On
Versions: 1 2 3 4 5 6 7 8 9 10 11 12 13 14 15 16 17 18 19 20 21 22 23 24 25 26 27 28 29 30 31 32 33 34 35 36 37 38 39 40 41 42 43 44 45 46 47 48 49 50
000
ASUS43 KLOT 281309
RWRIL

ILLINOIS REGIONAL WEATHER ROUNDUP
NATIONAL WEATHER SERVICE CHICAGO/ROMEOVILLE IL
800 AM CDT FRI JUL 28 2017

NOTE: "FAIR" INDICATES FEW OR NO CLOUDS BELOW 12,000 FEET WITH NO
SIGNIFICANT WEATHER AND/OR OBSTRUCTIONS TO VISIBILITY.

* THESE STATIONS ARE NOT UNDER NWS QUALITY CONTROL. THEY ALSO MAY NOT
  REPORT WEATHER SUCH AS PRECIPITATION OR FOG.

ILZ001-002-007-009-015-016-024-281400-
NORTHWEST ILLINOIS

CITY           SKY/WX    TMP DP  RH WIND       PRES   REMARKS
MOLINE         SUNNY     71  58  63 NE5       30.00R
STERLING*      MOSUNNY   66  60  81 NE10      30.01R
SAVANNA*       MOSUNNY   66  57  74 NE7       30.03R
$$

ILZ003-004-008-010-011-017-018-281400-
NORTH CENTRAL ILLINOIS

CITY           SKY/WX    TMP DP  RH WIND       PRES   REMARKS
ROCKFORD       PTSUNNY   69  58  67 NE14      30.03R
FREEPORT*      SUNNY     64  58  82 NE6       30.05R
ROCHELLE*      MOSUNNY   65  61  85 NE14      30.01S
DE KALB*       MOSUNNY   67  63  87 N10G18    30.01R
PERU*          SUNNY     66  60  81 NE15      29.99R
$$

ILZ005-006-012>014-019>023-281400-
NORTHEAST ILLINOIS

CITY           SKY/WX    TMP DP  RH WIND       PRES   REMARKS
CHICAGO-OHARE  PTSUNNY   72  64  76 NE14      29.98R
CHICAGO-MIDWAY PTSUNNY   74  63  68 N20       29.97R
AURORA         MOSUNNY   69  65  86 NE15      29.99R
LANSING*       MOSUNNY   72  65  76 NE10      29.96R
JOLIET*        MOSUNNY   73  68  84 N9        29.97R
WAUKEGAN       MOSUNNY   69  65  86 NE14G22   30.00R
DUPAGE AIRPORT MOSUNNY   69  66  90 NE15      29.98R
KANKAKEE*      PTSUNNY   71  66  85 NE7       29.95R
WHEELING       PTSUNNY   71  66  84 N14G21    30.01R
MORRIS*        MOSUNNY   69  65  86 NE5       29.96R
ROMEOVILLE*    MOSUNNY   71  64  79 NE16      29.97S
$$

LMZ740>746-281400-
SOUTHERN LAKE MICHIGAN

STATION/POSITION SKY/WX   TEMP    WIND        PRES    VSBY  WAVE
                          AIR SEA DIR/SP/G                  HT/PER
                          (F)     (DEG/KT/KT) (MB)    (MI)  (FT/S)
SOUTHERN BUOY              70 72   40/ 14/ 16 1015.3          3/ 5
WILMETTE HARBOR            70 71   20/ 16/ 19   N/A           4/ 6
HARRISON CRIB              72      30/ 18/ 19   N/A
BURNHAM HARBOR             72                   N/A
CALUMET HARBOR             72     360/ 10/ 13 1014.5R
BURNS HARBOR               70      40/  9/ 11 1014.9R
MICHIGAN CITY              69      30/  9/ 10   N/A
MICHIGAN CITY 6N           71 73   50/ 12/ 16   N/A           4/ 6
ST. JOSEPH                 68 70   60/  8/ 12 1015.0          3/ 5
$$

ILZ025>027-034>036-040-047-049-050-058-095>099-281400-
WEST-CENTRAL ILLINOIS

CITY           SKY/WX    TMP DP  RH WIND       PRES   REMARKS
QUINCY         SUNNY     68  59  73 NE8       29.97R
GALESBURG*     SUNNY     65  59  80 N12       30.01R
MACOMB*        SUNNY     66  60  82 N8        30.00R
JACKSONVILLE*  SUNNY     67  60  78 N8        29.95S
PITTSFIELD*    SUNNY     68  61  76 N8        29.97R
$$

ILZ028>032-037-038-041>044-048-051>054-059>061-281400-
CENTRAL ILLINOIS

CITY           SKY/WX    TMP DP  RH WIND       PRES   REMARKS
PONTIAC        MOSUNNY   69  67  95 N14       29.96R
BLOOMINGTON    MOSUNNY   68  63  84 N14       29.95R
DECATUR        SUNNY     70  64  81 N8        29.92R
PEORIA         SUNNY     68  61  78 NE8       29.97R
LACON*         SUNNY     67  62  84 N7        29.97R
LINCOLN*       SUNNY     68  64  85 N9        29.94R
SPRINGFIELD    SUNNY     69  63  81 N8        29.94R
TAYLORVILLE    SUNNY     67  62  86 N9        29.92S
$$

ILZ033-039-045-046-055>057-062-063-281400-
EAST-CENTRAL ILLINOIS

CITY           SKY/WX    TMP DP  RH WIND       PRES   REMARKS
CHAMPAIGN      PTSUNNY   70  66  87 N12       29.91R
RANTOUL*       CLOUDY    72  69  89 NE12G17   29.92R
MATTOON        MOSUNNY   69  68  96 N12       29.88S
PARIS*         CLOUDY    69  69  99 N7        29.89S FOG
$$

ILZ079-100>102-281400-
SOUTHWEST ILLINOIS

CITY           SKY/WX    TMP DP  RH WIND       PRES   REMARKS
ALTON          PTSUNNY   70  66  88 NW12      29.92S
BELLEVILLE     MOSUNNY   72  68  86 N8        29.91R
CAHOKIA*       MOSUNNY   75  66  73 N10       29.91R
SPARTA*        CLOUDY    72  70  95 N6        29.90R
$$

ILZ064>066-069>071-074>076-080>082-084>086-088>090-092>094-281400-
SOUTH-CENTRAL ILLINOIS

CITY           SKY/WX    TMP DP  RH WIND       PRES   REMARKS
CARBONDALE     CLOUDY    77  76  96 N9        29.86R
CAIRO*         PTSUNNY   77  74  92 NW8       29.84R
EFFINGHAM*     MOSUNNY   70  68  93 N7        29.90S
MARION         CLOUDY    77  77 100 N9        29.86R FOG
MT. VERNON     CLOUDY    71  70  96 N6        29.87R
CENTRALIA*     CLOUDY    72  70  94 N6        29.88R
SALEM*         CLOUDY    72  68  87 N9        29.89R
METROPOLIS*    CLOUDY    78  75  90 NW5       29.84R HX  81
$$

ILZ067-068-072-073-078-083-087-091-281400-
SOUTHEAST ILLINOIS

CITY           SKY/WX    TMP DP  RH WIND       PRES   REMARKS
LAWRENCEVILLE  CLOUDY    71  70  96 N7        29.85S FOG
FLORA*         PTSUNNY   72  69  88 N8        29.88R
FAIRFIELD*     CLOUDY    73  71  94 CALM      29.85R
HARRISBURG*    CLOUDY    76  75  99 N6        29.86R FOG
ROBINSON*      CLOUDY    70  69  96 N6        29.87S
CARMI*         CLOUDY    74  73  99 N7        29.84S FOG
$$

ABBREVIATIONS USED IN REMARKS
   TC - TEMPERATURE IN CELSIUS
  WCI - WIND CHILL INDEX
   HX - HEAT INDEX
  VSB - VISIBILITY
$$




USA.gov is the U.S. government's official web portal to all federal, state and local government web resources and services.